START_TIME,STEP,MOV.,P11,t_acc.,P23,t_acc.,P27,t_acc.,A4,t_acc.
1979-08-01 09:00:22.000 ,0,0,2.,4.8,0.,4.8,0.,4.8,0.,4.8
1979-08-01 09:00:26.800 ,0,0,3.,4.8,0.,4.8,1.,4.8,0.,4.8
1979-08-01 09:00:31.600 ,0,0,1.,4.8,0.,4.8,0.,4.8,0.,4.8
1979-08-01 09:00:36.400 ,0,0,0.,4.8,0.,4.8,0.,4.8,0.,4.8
1979-08-01 09:00:41.200 ,0,0,0.,4.8,0.,4.8,0.,4.8,0.,4.8
1979-08-01 09:00:46.000 ,0,0,0.,4.8,0.,4.8,0.,4.8,0.,4.8
1979-08-01 09:00:50.800 ,0,0,0.,4.8,0.,4.8,0.,4.8,0.,4.8
1979-08-01 09:00:55.600 ,0,0,2.,4.8,0.,4.8,0.,4.8,0.,4.8
1979-08-01 09:01:00.400 ,0,0,0.,4.8,0.,4.8,0.,4.8,0.,4.8
1979-08-01 09:01:05.200 ,0,0,0.,4.8,0.,4.8,0.,4.8,0.,4.8
1979-08-01 09:01:10.000 ,0,0,1.,4.8,0.,4.8,0.,4.8,0.,4.8
1979-08-01 09:01:14.800 ,0,0,0.,4.8,0.,4.8,0.,4.8,0.,4.8
1979-08-01 09:01:19.600 ,0,0,0.,4.8,0.,4.8,0.,4.8,0.,4.8
1979-08-01 09:01:24.400 ,0,0,2.,4.8,0.,4.8,0.,4.8,0.,4.8
1979-08-01 09:01:29.200 ,0,0,0.,4.8,0.,4.8,0.,4.8,0.,4.8
1979-08-01 09:01:34.000 ,0,0,1.,4.8,0.,4.8,0.,4.8,0.,4.8
1979-08-01 09:01:38.800 ,0,0,0.,4.8,0.,4.8,0.,4.8,0.,4.8
1979-08-01 09:01:43.600 ,0,0,1.,4.8,1.,4.8,0.,4.8,0.,4.8
1979-08-01 09:01:48.400 ,0,0,3.,4.8,0.,4.8,0.,4.8,0.,4.8
1979-08-01 09:01:53.200 ,0,0,1.,4.8,0.,4.8,0.,4.8,0.,4.8
1979-08-01 09:01:58.000 ,0,0,1.,4.8,0.,4.8,0.,4.8,0.,4.8
1979-08-01 09:02:02.800 ,0,0,0.,4.8,0.,4.8,0.,4.8,0.,4.8
1979-08-01 09:02:07.600 ,0,0,1.,4.8,0.,4.8,0.,4.8,0.,4.8
1979-08-01 09:02:12.400 ,0,0,1.,4.8,0.,4.8,0.,4.8,0.,4.8
1979-08-01 09:02:17.200 ,0,0,0.,4.8,0.,4.8,0.,4.8,0.,4.8
1979-08-01 09:02:22.000 ,2,0,0.,4.8,0.,4.8,0.,4.8,0.,4.8
1979-08-01 09:02:26.800 ,2,0,0.,4.8,0.,4.8,0.,4.8,0.,4.8
1979-08-01 09:02:31.600 ,2,0,0.,4.8,0.,4.8,0.,4.8,0.,4.8
1979-08-01 09:02:36.400 ,2,0,0.,4.8,0.,4.8,0.,4.8,0.,4.8
1979-08-01 09:02:41.200 ,2,0,4.,4.8,0.,4.8,0.,4.8,0.,4.8
1979-08-01 09:02:46.000 ,2,0,0.,4.8,0.,4.8,0.,4.8,0.,4.8
1979-08-01 09:02:50.800 ,2,0,2.,4.8,0.,4.8,0.,4.8,0.,4.8
1979-08-01 09:02:55.600 ,2,0,3.,4.8,0.,4.8,0.,4.8,0.,4.8
1979-08-01 09:03:00.400 ,2,0,3.,4.8,0.,4.8,0.,4.8,0.,4.8
1979-08-01 09:03:05.200 ,2,0,2.,4.8,0.,4.8,0.,4.8,0.,4.8
1979-08-01 09:03:10.000 ,3,0,0.,4.8,0.,4.8,0.,4.8,0.,4.8
1979-08-01 09:03:14.800 ,3,0,0.,4.8,0.,4.8,1.,4.8,0.,4.8
1979-08-01 09:03:19.600 ,3,0,0.,4.8,0.,4.8,0.,4.8,0.,4.8
1979-08-01 09:03:24.400 ,3,0,0.,4.8,0.,4.8,0.,4.8,0.,4.8
1979-08-01 09:03:29.200 ,3,0,2.,4.8,0.,4.8,0.,4.8,0.,4.8
1979-08-01 09:03:34.000 ,3,0,1.,4.8,0.,4.8,0.,4.8,0.,4.8
1979-08-01 09:03:38.800 ,3,0,2.,4.8,0.,4.8,0.,4.8,0.,4.8
1979-08-01 09:03:43.600 ,3,0,0.,4.8,0.,4.8,0.,4.8,0.,4.8
1979-08-01 09:03:48.400 ,3,0,3.,4.8,0.,4.8,0.,4.8,0.,4.8
1979-08-01 09:03:53.200 ,3,0,1.,4.8,0.,4.8,0.,4.8,0.,4.8
1979-08-01 09:03:58.000 ,4,0,3.,4.8,0.,4.8,0.,4.8,0.,4.8
1979-08-01 09:04:02.800 ,4,0,2.,4.8,0.,4.8,0.,4.8,0.,4.8
1979-08-01 09:04:07.600 ,4,0,0.,4.8,0.,4.8,1.,4.8,0.,4.8
1979-08-01 09:04:12.400 ,4,0,1.,4.8,1.,4.8,0.,4.8,0.,4.8
1979-08-01 09:04:17.200 ,4,0,2.,4.8,0.,4.8,0.,4.8,0.,4.8
1979-08-01 09:04:22.000 ,4,0,1.,4.8,0.,4.8,0.,4.8,0.,4.8
1979-08-01 09:04:26.800 ,4,0,2.,4.8,0.,4.8,0.,4.8,0.,4.8
1979-08-01 09:04:31.600 ,4,0,2.,4.8,1.,4.8,0.,4.8,0.,4.8
1979-08-01 09:04:36.400 ,4,0,1.,4.8,0.,4.8,0.,4.8,0.,4.8
1979-08-01 09:04:41.200 ,4,0,0.,4.8,0.,4.8,0.,4.8,0.,4.8
1979-08-01 09:04:46.000 ,5,0,1.,4.8,0.,4.8,1.,4.8,0.,4.8
1979-08-01 09:04:50.800 ,5,0,2.,4.8,0.,4.8,0.,4.8,0.,4.8
1979-08-01 09:04:55.600 ,5,0,4.,4.8,0.,4.8,0.,4.8,0.,4.8
1979-08-01 09:05:00.400 ,5,0,2.,4.8,0.,4.8,0.,4.8,0.,4.8
1979-08-01 09:05:05.200 ,5,0,2.,4.8,0.,4.8,0.,4.8,0.,4.8
1979-08-01 09:05:10.000 ,0,0,1.,4.8,0.,4.8,0.,4.8,0.,4.8
1979-08-01 09:05:14.800 ,0,0,1.,4.8,0.,4.8,0.,4.8,0.,4.8
1979-08-01 09:05:19.600 ,0,0,2.,4.8,0.,4.8,0.,4.8,0.,4.8
1979-08-01 09:05:24.400 ,0,0,0.,4.8,0.,4.8,0.,4.8,0.,4.8
1979-08-01 09:05:29.200 ,0,0,4.,4.8,0.,4.8,0.,4.8,0.,4.8
1979-08-01 09:05:34.000 ,6,0,1.,4.8,0.,4.8,0.,4.8,0.,4.8
1979-08-01 09:05:38.800 ,6,0,0.,4.8,0.,4.8,0.,4.8,0.,4.8
1979-08-01 09:05:43.600 ,6,0,3.,4.8,0.,4.8,0.,4.8,0.,4.8
1979-08-01 09:05:48.400 ,6,0,0.,4.8,0.,4.8,0.,4.8,0.,4.8
1979-08-01 09:05:53.200 ,6,0,0.,4.8,0.,4.8,0.,4.8,0.,4.8
1979-08-01 09:05:58.000 ,6,0,4.,4.8,0.,4.8,0.,4.8,0.,4.8
1979-08-01 09:06:02.800 ,6,0,2.,4.8,0.,4.8,0.,4.8,0.,4.8
1979-08-01 09:06:07.600 ,6,0,1.,4.8,0.,4.8,0.,4.8,0.,4.8
1979-08-01 09:06:12.400 ,6,0,0.,4.8,0.,4.8,0.,4.8,0.,4.8
1979-08-01 09:06:17.200 ,6,0,0.,4.8,0.,4.8,1.,4.8,0.,4.8
1979-08-01 09:06:22.000 ,7,0,2.,4.8,0.,4.8,0.,4.8,0.,4.8
1979-08-01 09:06:26.800 ,7,0,0.,4.8,0.,4.8,0.,4.8,0.,4.8
1979-08-01 09:06:31.600 ,7,0,,0,,0,,0,,0
1979-08-01 09:06:36.400 ,7,0,,0,,0,,0,,0
1979-08-01 09:06:41.200 ,7,0,0.,4.8,0.,4.8,0.,4.8,0.,4.8
1979-08-01 09:06:46.000 ,7,0,0.,4.8,0.,4.8,0.,4.8,0.,4.8
1979-08-01 09:06:50.800 ,7,0,0.,4.8,0.,4.8,0.,4.8,0.,4.8
1979-08-01 09:06:55.600 ,7,0,0.,4.8,0.,4.8,0.,4.8,0.,4.8
1979-08-01 09:07:00.400 ,7,0,1.,4.8,0.,4.8,0.,4.8,0.,4.8
1979-08-01 09:07:05.200 ,7,0,0.,4.8,0.,4.8,0.,4.8,0.,4.8
1979-08-01 09:07:10.000 ,3,1,1.,4.8,0.,4.8,0.,4.8,0.,4.8
1979-08-01 09:07:14.800 ,3,1,1.,4.8,0.,4.8,1.,4.8,0.,4.8
1979-08-01 09:07:19.600 ,3,1,0.,4.8,0.,4.8,0.,4.8,0.,4.8
1979-08-01 09:07:24.400 ,3,1,1.,4.8,0.,4.8,0.,4.8,0.,4.8
1979-08-01 09:07:29.200 ,3,1,0.,4.8,0.,4.8,0.,4.8,0.,4.8
1979-08-01 09:07:34.000 ,0,1,1.,4.8,0.,4.8,0.,4.8,0.,4.8
1979-08-01 09:07:38.800 ,0,1,0.,4.8,0.,4.8,0.,4.8,0.,4.8
1979-08-01 09:07:43.600 ,0,1,1.,4.8,0.,4.8,0.,4.8,0.,4.8
1979-08-01 09:07:48.400 ,0,1,1.,4.8,0.,4.8,0.,4.8,0.,4.8
1979-08-01 09:07:53.200 ,0,1,0.,4.8,0.,4.8,1.,4.8,0.,4.8
1979-08-01 09:07:58.000 ,4,1,3.,4.8,0.,4.8,0.,4.8,0.,4.8
1979-08-01 09:08:02.800 ,4,1,2.,4.8,0.,4.8,0.,4.8,0.,4.8
1979-08-01 09:08:07.600 ,4,1,3.,4.8,0.,4.8,0.,4.8,0.,4.8
1979-08-01 09:08:12.400 ,4,1,3.,4.8,0.,4.8,0.,4.8,0.,4.8
1979-08-01 09:08:17.200 ,4,1,0.,4.8,0.,4.8,0.,4.8,0.,4.8
1979-08-01 09:08:22.000 ,7,1,5.,4.8,0.,4.8,0.,4.8,0.,4.8
1979-08-01 09:08:26.800 ,7,1,1.,4.8,0.,4.8,0.,4.8,0.,4.8
1979-08-01 09:08:31.600 ,7,1,2.,4.8,0.,4.8,0.,4.8,0.,4.8
1979-08-01 09:08:36.400 ,7,1,0.,4.8,0.,4.8,1.,4.8,0.,4.8
1979-08-01 09:08:41.200 ,7,1,0.,4.8,0.,4.8,0.,4.8,0.,4.8
1979-08-01 09:08:46.000 ,3,1,0.,4.8,0.,4.8,0.,4.8,0.,4.8
1979-08-01 09:08:50.800 ,3,1,,0,,0,,0,,0
1979-08-01 09:08:55.600 ,3,1,1.,4.8,0.,4.8,0.,4.8,0.,4.8
1979-08-01 09:09:00.400 ,3,1,3.,4.8,0.,4.8,0.,4.8,0.,4.8
1979-08-01 09:09:05.200 ,3,1,2.,4.8,0.,4.8,0.,4.8,0.,4.8
1979-08-01 09:09:10.000 ,0,1,3.,4.8,0.,4.8,0.,4.8,0.,4.8
1979-08-01 09:09:14.800 ,0,1,,0,,0,,0,,0
1979-08-01 09:09:19.600 ,0,1,1.,4.8,0.,4.8,0.,4.8,0.,4.8
1979-08-01 09:09:24.400 ,0,1,1.,4.8,0.,4.8,0.,4.8,0.,4.8
1979-08-01 09:09:29.200 ,0,1,1.,4.8,0.,4.8,1.,4.8,0.,4.8
1979-08-01 09:09:34.000 ,4,1,2.,4.8,0.,4.8,0.,4.8,0.,4.8
1979-08-01 09:09:38.800 ,4,1,3.,4.8,0.,4.8,0.,4.8,0.,4.8
1979-08-01 09:09:43.600 ,4,1,2.,4.8,0.,4.8,0.,4.8,0.,4.8
1979-08-01 09:09:48.400 ,4,1,0.,4.8,0.,4.8,0.,4.8,0.,4.8
1979-08-01 09:09:53.200 ,4,1,2.,4.8,0.,4.8,0.,4.8,0.,4.8
1979-08-01 09:09:58.000 ,7,1,1.,4.8,0.,4.8,0.,4.8,0.,4.8
1979-08-01 09:10:02.800 ,7,1,0.,4.8,0.,4.8,0.,4.8,0.,4.8
1979-08-01 09:10:07.600 ,7,1,0.,4.8,0.,4.8,0.,4.8,0.,4.8
1979-08-01 09:10:12.400 ,7,1,1.,4.8,0.,4.8,1.,4.8,0.,4.8
1979-08-01 09:10:17.200 ,7,1,1.,4.8,0.,4.8,0.,4.8,0.,4.8
1979-08-01 09:10:22.000 ,3,1,0.,4.8,0.,4.8,0.,4.8,0.,4.8
1979-08-01 09:10:26.800 ,3,1,1.,4.8,0.,4.8,0.,4.8,0.,4.8
1979-08-01 09:10:31.600 ,3,1,6.,4.8,0.,4.8,0.,4.8,0.,4.8
1979-08-01 09:10:36.400 ,3,1,1.,4.8,0.,4.8,0.,4.8,0.,4.8
1979-08-01 09:10:41.200 ,3,1,2.,4.8,0.,4.8,0.,4.8,0.,4.8
1979-08-01 09:10:46.000 ,0,1,1.,4.8,0.,4.8,0.,4.8,0.,4.8
1979-08-01 09:10:50.800 ,0,1,0.,4.8,0.,4.8,0.,4.8,0.,4.8
1979-08-01 09:10:55.600 ,0,1,1.,4.8,0.,4.8,0.,4.8,0.,4.8
1979-08-01 09:11:00.400 ,0,1,2.,4.8,0.,4.8,0.,4.8,0.,4.8
1979-08-01 09:11:05.200 ,0,1,1.,4.8,0.,4.8,0.,4.8,0.,4.8
1979-08-01 09:11:10.000 ,4,1,2.,4.8,0.,4.8,0.,4.8,0.,4.8
1979-08-01 09:11:14.800 ,4,1,1.,4.8,0.,4.8,0.,4.8,0.,4.8
1979-08-01 09:11:19.600 ,4,1,2.,4.8,0.,4.8,0.,4.8,0.,4.8
1979-08-01 09:11:24.400 ,4,1,2.,4.8,0.,4.8,0.,4.8,0.,4.8
1979-08-01 09:11:29.200 ,4,1,0.,4.8,0.,4.8,0.,4.8,0.,4.8
1979-08-01 09:11:34.000 ,7,1,2.,4.8,0.,4.8,0.,4.8,0.,4.8
1979-08-01 09:11:38.800 ,7,1,2.,4.8,0.,4.8,0.,4.8,0.,4.8
1979-08-01 09:11:43.600 ,7,1,2.,4.8,0.,4.8,0.,4.8,0.,4.8
1979-08-01 09:11:48.400 ,7,1,1.,4.8,0.,4.8,0.,4.8,0.,4.8
1979-08-01 09:11:53.200 ,7,1,1.,4.8,0.,4.8,0.,4.8,0.,4.8
1979-08-01 09:11:58.000 ,3,1,1.,4.8,0.,4.8,0.,4.8,0.,4.8
1979-08-01 09:12:02.800 ,3,1,2.,4.8,0.,4.8,0.,4.8,0.,4.8
1979-08-01 09:12:07.600 ,3,1,1.,4.8,0.,4.8,0.,4.8,0.,4.8
1979-08-01 09:12:12.400 ,3,1,1.,4.8,0.,4.8,0.,4.8,0.,4.8
1979-08-01 09:12:17.200 ,3,1,2.,4.8,0.,4.8,0.,4.8,0.,4.8
1979-08-01 09:12:22.000 ,0,1,0.,4.8,0.,4.8,0.,4.8,0.,4.8
1979-08-01 09:12:26.800 ,0,1,2.,4.8,0.,4.8,0.,4.8,0.,4.8
1979-08-01 09:12:31.600 ,0,1,3.,4.8,0.,4.8,0.,4.8,0.,4.8
1979-08-01 09:12:36.400 ,0,1,1.,4.8,0.,4.8,0.,4.8,0.,4.8
1979-08-01 09:12:41.200 ,0,1,0.,4.8,0.,4.8,0.,4.8,0.,4.8
1979-08-01 09:12:46.000 ,3,1,0.,4.8,0.,4.8,0.,4.8,0.,4.8
1979-08-01 09:12:50.800 ,3,1,1.,4.8,0.,4.8,0.,4.8,0.,4.8
1979-08-01 09:12:55.600 ,3,1,0.,4.8,0.,4.8,0.,4.8,0.,4.8
1979-08-01 09:13:00.400 ,3,1,1.,4.8,0.,4.8,0.,4.8,0.,4.8
1979-08-01 09:13:05.200 ,3,1,,0,,0,,0,,0
1979-08-01 09:13:10.000 ,7,1,3.,4.8,0.,4.8,0.,4.8,0.,4.8
1979-08-01 09:13:14.800 ,7,1,1.,4.8,0.,4.8,0.,4.8,0.,4.8
1979-08-01 09:13:19.600 ,7,1,2.,4.8,0.,4.8,0.,4.8,0.,4.8
1979-08-01 09:13:24.400 ,7,1,0.,4.8,0.,4.8,0.,4.8,0.,4.8
1979-08-01 09:13:29.200 ,7,1,0.,4.8,0.,4.8,1.,4.8,0.,4.8
1979-08-01 09:13:34.000 ,3,1,1.,4.8,1.,4.8,0.,4.8,0.,4.8
1979-08-01 09:13:38.800 ,3,1,0.,4.8,0.,4.8,0.,4.8,0.,4.8
1979-08-01 09:13:43.600 ,3,1,0.,4.8,0.,4.8,0.,4.8,0.,4.8
1979-08-01 09:13:48.400 ,3,1,3.,4.8,0.,4.8,0.,4.8,0.,4.8
1979-08-01 09:13:53.200 ,3,1,0.,4.8,0.,4.8,0.,4.8,0.,4.8
1979-08-01 09:13:58.000 ,0,1,1.,4.8,0.,4.8,0.,4.8,0.,4.8
1979-08-01 09:14:02.800 ,0,1,1.,4.8,0.,4.8,0.,4.8,0.,4.8
1979-08-01 09:14:07.600 ,0,1,2.,4.8,0.,4.8,0.,4.8,0.,4.8
1979-08-01 09:14:12.400 ,0,1,0.,4.8,0.,4.8,0.,4.8,0.,4.8
1979-08-01 09:14:17.200 ,0,1,0.,4.8,0.,4.8,0.,4.8,0.,4.8
1979-08-01 09:14:22.000 ,4,1,0.,4.8,0.,4.8,0.,4.8,0.,4.8
1979-08-01 09:14:26.800 ,4,1,0.,4.8,0.,4.8,0.,4.8,0.,4.8
1979-08-01 09:14:31.600 ,4,1,0.,4.8,0.,4.8,1.,4.8,0.,4.8
1979-08-01 09:14:36.400 ,4,1,0.,4.8,0.,4.8,0.,4.8,0.,4.8
1979-08-01 09:14:41.200 ,4,1,2.,4.8,0.,4.8,0.,4.8,0.,4.8
1979-08-01 09:14:46.000 ,7,1,2.,4.8,0.,4.8,0.,4.8,0.,4.8
1979-08-01 09:14:50.800 ,7,1,2.,4.8,0.,4.8,0.,4.8,0.,4.8
1979-08-01 09:14:55.600 ,7,1,0.,4.8,0.,4.8,0.,4.8,0.,4.8
1979-08-01 09:15:00.400 ,7,1,2.,4.8,0.,4.8,0.,4.8,0.,4.8
1979-08-01 09:15:05.200 ,7,1,0.,4.8,0.,4.8,0.,4.8,0.,4.8
1979-08-01 09:15:10.000 ,3,1,0.,4.8,0.,4.8,0.,4.8,0.,4.8
1979-08-01 09:15:14.800 ,3,1,3.,4.8,0.,4.8,1.,4.8,0.,4.8
1979-08-01 09:15:19.600 ,3,1,0.,4.8,0.,4.8,0.,4.8,0.,4.8
1979-08-01 09:15:24.400 ,3,1,0.,4.8,0.,4.8,0.,4.8,0.,4.8
1979-08-01 09:15:29.200 ,3,1,0.,4.8,0.,4.8,0.,4.8,0.,4.8
1979-08-01 09:15:34.000 ,0,1,0.,4.8,0.,4.8,0.,4.8,0.,4.8
1979-08-01 09:15:38.800 ,0,1,1.,4.8,0.,4.8,0.,4.8,0.,4.8
1979-08-01 09:15:43.600 ,0,1,0.,4.8,0.,4.8,1.,4.8,0.,4.8
1979-08-01 09:15:48.400 ,0,1,0.,4.8,0.,4.8,0.,4.8,0.,4.8
1979-08-01 09:15:53.200 ,0,1,0.,4.8,0.,4.8,0.,4.8,0.,4.8
1979-08-01 09:15:58.000 ,4,1,0.,4.8,0.,4.8,0.,4.8,0.,4.8
1979-08-01 09:16:02.800 ,4,1,2.,4.8,0.,4.8,0.,4.8,0.,4.8
1979-08-01 09:16:07.600 ,4,1,1.,4.8,0.,4.8,0.,4.8,0.,4.8
1979-08-01 09:16:12.400 ,4,1,1.,4.8,0.,4.8,0.,4.8,0.,4.8
1979-08-01 09:16:17.200 ,4,1,1.,4.8,0.,4.8,0.,4.8,0.,4.8
1979-08-01 09:16:22.000 ,7,1,0.,4.8,0.,4.8,0.,4.8,0.,4.8
1979-08-01 09:16:26.800 ,7,1,0.,4.8,0.,4.8,0.,4.8,0.,4.8
1979-08-01 09:16:31.600 ,7,1,0.,4.8,0.,4.8,0.,4.8,0.,4.8
1979-08-01 09:16:36.400 ,7,1,0.,4.8,0.,4.8,1.,4.8,0.,4.8
1979-08-01 09:16:41.200 ,7,1,0.,4.8,0.,4.8,1.,4.8,0.,4.8
1979-08-01 09:16:46.000 ,3,1,0.,4.8,0.,4.8,1.,4.8,0.,4.8
1979-08-01 09:16:50.800 ,3,1,1.,4.8,0.,4.8,0.,4.8,0.,4.8
1979-08-01 09:16:55.600 ,3,1,0.,4.8,0.,4.8,1.,4.8,0.,4.8
1979-08-01 09:17:00.400 ,3,1,0.,4.8,1.,4.8,0.,4.8,1.,4.8
1979-08-01 09:17:05.200 ,3,1,0.,4.8,0.,4.8,0.,4.8,0.,4.8
1979-08-01 09:17:10.000 ,0,1,0.,4.8,0.,4.8,0.,4.8,0.,4.8
1979-08-01 09:17:14.800 ,0,1,2.,4.8,0.,4.8,0.,4.8,0.,4.8
1979-08-01 09:17:19.600 ,0,1,2.,4.8,0.,4.8,0.,4.8,0.,4.8
1979-08-01 09:17:24.400 ,0,1,1.,4.8,0.,4.8,0.,4.8,0.,4.8
1979-08-01 09:17:29.200 ,0,1,3.,4.8,0.,4.8,0.,4.8,0.,4.8
1979-08-01 09:17:34.000 ,0,0,0.,4.8,0.,4.8,0.,4.8,0.,4.8
1979-08-01 09:17:38.800 ,0,0,0.,4.8,0.,4.8,0.,4.8,0.,4.8
1979-08-01 09:17:43.600 ,0,0,2.,4.8,0.,4.8,0.,4.8,0.,4.8
1979-08-01 09:17:48.400 ,0,0,0.,4.8,0.,4.8,0.,4.8,0.,4.8
1979-08-01 09:17:53.200 ,0,0,0.,4.8,0.,4.8,0.,4.8,0.,4.8
1979-08-01 09:17:58.000 ,0,0,0.,4.8,0.,4.8,1.,4.8,0.,4.8
1979-08-01 09:18:02.800 ,0,0,0.,4.8,0.,4.8,0.,4.8,0.,4.8
1979-08-01 09:18:07.600 ,0,0,0.,4.8,0.,4.8,1.,4.8,0.,4.8
1979-08-01 09:18:12.400 ,0,0,3.,4.8,0.,4.8,1.,4.8,0.,4.8
1979-08-01 09:18:17.200 ,0,0,1.,4.8,0.,4.8,0.,4.8,0.,4.8
1979-08-01 09:18:22.000 ,5,0,2.,4.8,0.,4.8,0.,4.8,0.,4.8
1979-08-01 09:18:26.800 ,5,0,2.,4.8,1.,4.8,0.,4.8,0.,4.8
1979-08-01 09:18:31.600 ,5,0,0.,4.8,0.,4.8,0.,4.8,0.,4.8
1979-08-01 09:18:36.400 ,5,0,1.,4.8,0.,4.8,0.,4.8,0.,4.8
1979-08-01 09:18:41.200 ,5,0,1.,4.8,0.,4.8,0.,4.8,0.,4.8
1979-08-01 09:18:46.000 ,5,0,0.,4.8,0.,4.8,1.,4.8,0.,4.8
1979-08-01 09:18:50.800 ,5,0,0.,4.8,0.,4.8,0.,4.8,0.,4.8
1979-08-01 09:18:55.600 ,5,0,1.,4.8,1.,4.8,0.,4.8,0.,4.8
1979-08-01 09:19:00.400 ,5,0,1.,4.8,0.,4.8,0.,4.8,0.,4.8
1979-08-01 09:19:05.200 ,5,0,0.,4.8,0.,4.8,0.,4.8,0.,4.8
1979-08-01 09:19:10.000 ,4,0,1.,4.8,0.,4.8,1.,4.8,0.,4.8
1979-08-01 09:19:14.800 ,4,0,0.,4.8,0.,4.8,0.,4.8,0.,4.8
1979-08-01 09:19:19.600 ,4,0,1.,4.8,0.,4.8,0.,4.8,0.,4.8
1979-08-01 09:19:24.400 ,4,0,1.,4.8,0.,4.8,0.,4.8,0.,4.8
1979-08-01 09:19:29.200 ,4,0,0.,4.8,0.,4.8,0.,4.8,0.,4.8
1979-08-01 09:19:34.000 ,4,0,2.,4.8,0.,4.8,0.,4.8,0.,4.8
1979-08-01 09:19:38.800 ,4,0,1.,4.8,0.,4.8,0.,4.8,0.,4.8
1979-08-01 09:19:43.600 ,4,0,1.,4.8,0.,4.8,0.,4.8,0.,4.8
1979-08-01 09:19:48.400 ,4,0,0.,4.8,0.,4.8,0.,4.8,0.,4.8
1979-08-01 09:19:53.200 ,4,0,2.,4.8,0.,4.8,0.,4.8,0.,4.8
1979-08-01 09:19:58.000 ,3,0,1.,4.8,0.,4.8,0.,4.8,0.,4.8
1979-08-01 09:20:02.800 ,3,0,1.,4.8,0.,4.8,0.,4.8,0.,4.8
1979-08-01 09:20:07.600 ,3,0,3.,4.8,0.,4.8,0.,4.8,0.,4.8
1979-08-01 09:20:12.400 ,3,0,2.,4.8,0.,4.8,0.,4.8,0.,4.8
1979-08-01 09:20:17.200 ,3,0,1.,4.8,0.,4.8,0.,4.8,0.,4.8
1979-08-01 09:20:22.000 ,3,0,0.,4.8,0.,4.8,0.,4.8,0.,4.8
1979-08-01 09:20:26.800 ,3,0,0.,4.8,0.,4.8,0.,4.8,0.,4.8
1979-08-01 09:20:31.600 ,3,0,0.,4.8,0.,4.8,0.,4.8,0.,4.8
1979-08-01 09:20:36.400 ,3,0,0.,4.8,0.,4.8,0.,4.8,0.,4.8
1979-08-01 09:20:41.200 ,3,0,3.,4.8,0.,4.8,0.,4.8,0.,4.8
1979-08-01 09:20:46.000 ,2,0,2.,4.8,0.,4.8,0.,4.8,0.,4.8
1979-08-01 09:20:50.800 ,2,0,1.,4.8,0.,4.8,0.,4.8,0.,4.8
1979-08-01 09:20:55.600 ,2,0,,0,,0,,0,,0
1979-08-01 09:21:00.400 ,2,0,2.,4.8,0.,4.8,0.,4.8,0.,4.8
1979-08-01 09:21:05.200 ,2,0,2.,4.8,0.,4.8,0.,4.8,0.,4.8
1979-08-01 09:21:10.000 ,2,0,3.,4.8,0.,4.8,0.,4.8,0.,4.8
1979-08-01 09:21:14.800 ,2,0,2.,4.8,0.,4.8,0.,4.8,0.,4.8
1979-08-01 09:21:19.600 ,2,0,0.,4.8,0.,4.8,0.,4.8,0.,4.8
1979-08-01 09:21:24.400 ,2,0,1.,4.8,0.,4.8,0.,4.8,0.,4.8
1979-08-01 09:21:29.200 ,2,0,1.,4.8,0.,4.8,0.,4.8,0.,4.8
1979-08-01 09:21:34.000 ,1,0,0.,4.8,0.,4.8,1.,4.8,0.,4.8
1979-08-01 09:21:38.800 ,1,0,0.,4.8,0.,4.8,0.,4.8,0.,4.8
1979-08-01 09:21:43.600 ,1,0,1.,4.8,0.,4.8,0.,4.8,0.,4.8
1979-08-01 09:21:48.400 ,1,0,0.,4.8,0.,4.8,0.,4.8,0.,4.8
1979-08-01 09:21:53.200 ,1,0,0.,4.8,0.,4.8,0.,4.8,0.,4.8
1979-08-01 09:21:58.000 ,1,0,0.,4.8,0.,4.8,0.,4.8,0.,4.8
1979-08-01 09:22:02.800 ,1,0,1.,4.8,0.,4.8,0.,4.8,0.,4.8
1979-08-01 09:22:07.600 ,1,0,0.,4.8,0.,4.8,1.,4.8,0.,4.8
1979-08-01 09:22:12.400 ,1,0,3.,4.8,0.,4.8,1.,4.8,0.,4.8
1979-08-01 09:22:17.200 ,1,0,3.,4.8,0.,4.8,0.,4.8,0.,4.8
1979-08-01 09:22:22.000 ,0,0,0.,4.8,0.,4.8,0.,4.8,0.,4.8
1979-08-01 09:22:26.800 ,0,0,0.,4.8,0.,4.8,0.,4.8,0.,4.8
1979-08-01 09:22:31.600 ,0,0,0.,4.8,0.,4.8,0.,4.8,0.,4.8
1979-08-01 09:22:36.400 ,0,0,4.,4.8,0.,4.8,0.,4.8,0.,4.8
1979-08-01 09:22:41.200 ,0,0,3.,4.8,0.,4.8,0.,4.8,0.,4.8
1979-08-01 09:22:46.000 ,0,0,0.,4.8,0.,4.8,0.,4.8,0.,4.8
1979-08-01 09:22:50.800 ,0,0,1.,4.8,0.,4.8,0.,4.8,0.,4.8
1979-08-01 09:22:55.600 ,0,0,0.,4.8,0.,4.8,0.,4.8,0.,4.8
1979-08-01 09:23:00.400 ,0,0,2.,4.8,0.,4.8,0.,4.8,0.,4.8
1979-08-01 09:23:05.200 ,0,0,0.,4.8,0.,4.8,0.,4.8,0.,4.8
1979-08-01 09:23:10.000 ,0,0,1.,4.8,0.,4.8,0.,4.8,0.,4.8
1979-08-01 09:23:14.800 ,0,0,1.,4.8,0.,4.8,0.,4.8,0.,4.8
1979-08-01 09:23:19.600 ,0,0,3.,4.8,0.,4.8,0.,4.8,0.,4.8
1979-08-01 09:23:24.400 ,0,0,3.,4.8,0.,4.8,0.,4.8,0.,4.8
1979-08-01 09:23:29.200 ,0,0,3.,4.8,0.,4.8,0.,4.8,0.,4.8
1979-08-01 09:23:34.000 ,0,0,1.,4.8,1.,4.8,2.,4.8,0.,4.8
1979-08-01 09:23:38.800 ,0,0,1.,4.8,0.,4.8,0.,4.8,0.,4.8
1979-08-01 09:23:43.600 ,0,0,0.,4.8,0.,4.8,1.,4.8,0.,4.8
1979-08-01 09:23:48.400 ,0,0,0.,4.8,0.,4.8,0.,4.8,0.,4.8
1979-08-01 09:23:53.200 ,0,0,1.,4.8,0.,4.8,0.,4.8,0.,4.8
1979-08-01 09:23:58.000 ,1,0,1.,4.8,0.,4.8,0.,4.8,0.,4.8
1979-08-01 09:24:02.800 ,1,0,1.,4.8,0.,4.8,0.,4.8,0.,4.8
1979-08-01 09:24:07.600 ,1,0,0.,4.8,0.,4.8,0.,4.8,0.,4.8
1979-08-01 09:24:12.400 ,1,0,1.,4.8,0.,4.8,0.,4.8,0.,4.8
1979-08-01 09:24:17.200 ,1,0,1.,4.8,0.,4.8,0.,4.8,0.,4.8
1979-08-01 09:24:22.000 ,1,0,2.,4.8,0.,4.8,0.,4.8,0.,4.8
1979-08-01 09:24:26.800 ,1,0,0.,4.8,0.,4.8,0.,4.8,0.,4.8
1979-08-01 09:24:31.600 ,1,0,1.,4.8,0.,4.8,0.,4.8,0.,4.8
1979-08-01 09:24:36.400 ,1,0,0.,4.8,0.,4.8,0.,4.8,0.,4.8
1979-08-01 09:24:41.200 ,1,0,3.,4.8,0.,4.8,0.,4.8,0.,4.8
1979-08-01 09:24:46.000 ,2,0,0.,4.8,0.,4.8,0.,4.8,0.,4.8
1979-08-01 09:24:50.800 ,2,0,2.,4.8,0.,4.8,0.,4.8,0.,4.8
1979-08-01 09:24:55.600 ,2,0,2.,4.8,0.,4.8,0.,4.8,0.,4.8
1979-08-01 09:25:00.400 ,2,0,2.,4.8,0.,4.8,0.,4.8,0.,4.8
1979-08-01 09:25:05.200 ,2,0,0.,4.8,0.,4.8,0.,4.8,0.,4.8
1979-08-01 09:25:10.000 ,0,0,0.,4.8,0.,4.8,0.,4.8,0.,4.8
1979-08-01 09:25:14.800 ,0,0,1.,4.8,0.,4.8,0.,4.8,0.,4.8
1979-08-01 09:25:19.600 ,0,0,1.,4.8,0.,4.8,1.,4.8,0.,4.8
1979-08-01 09:25:24.400 ,0,0,0.,4.8,0.,4.8,1.,4.8,0.,4.8
1979-08-01 09:25:29.200 ,0,0,0.,4.8,1.,4.8,0.,4.8,0.,4.8
1979-08-01 09:25:34.000 ,3,0,2.,4.8,0.,4.8,1.,4.8,0.,4.8
1979-08-01 09:25:38.800 ,3,0,1.,4.8,0.,4.8,0.,4.8,0.,4.8
1979-08-01 09:25:43.600 ,3,0,1.,4.8,0.,4.8,0.,4.8,0.,4.8
1979-08-01 09:25:48.400 ,3,0,0.,4.8,1.,4.8,0.,4.8,0.,4.8
1979-08-01 09:25:53.200 ,3,0,0.,4.8,0.,4.8,0.,4.8,0.,4.8
1979-08-01 09:25:58.000 ,3,0,1.,4.8,0.,4.8,0.,4.8,0.,4.8
1979-08-01 09:26:02.800 ,3,0,2.,4.8,0.,4.8,0.,4.8,0.,4.8
1979-08-01 09:26:07.600 ,3,0,0.,4.8,0.,4.8,1.,4.8,0.,4.8
1979-08-01 09:26:12.400 ,3,0,2.,4.8,0.,4.8,0.,4.8,0.,4.8
1979-08-01 09:26:17.200 ,3,0,0.,4.8,0.,4.8,1.,4.8,0.,4.8
1979-08-01 09:26:22.000 ,4,0,0.,4.8,0.,4.8,0.,4.8,0.,4.8
1979-08-01 09:26:26.800 ,4,0,2.,4.8,0.,4.8,0.,4.8,0.,4.8
1979-08-01 09:26:31.600 ,4,0,3.,4.8,0.,4.8,0.,4.8,0.,4.8
1979-08-01 09:26:36.400 ,4,0,0.,4.8,0.,4.8,0.,4.8,0.,4.8
1979-08-01 09:26:41.200 ,4,0,0.,4.8,0.,4.8,0.,4.8,0.,4.8
1979-08-01 09:26:46.000 ,4,0,1.,4.8,0.,4.8,0.,4.8,0.,4.8
1979-08-01 09:26:50.800 ,4,0,3.,4.8,0.,4.8,0.,4.8,0.,4.8
1979-08-01 09:26:55.600 ,4,0,2.,4.8,0.,4.8,0.,4.8,0.,4.8
1979-08-01 09:27:00.400 ,4,0,1.,4.8,0.,4.8,1.,4.8,0.,4.8
1979-08-01 09:27:05.200 ,4,0,1.,4.8,0.,4.8,0.,4.8,0.,4.8
1979-08-01 09:27:10.000 ,5,0,3.,4.8,0.,4.8,0.,4.8,0.,4.8
1979-08-01 09:27:14.800 ,5,0,1.,4.8,0.,4.8,1.,4.8,0.,4.8
1979-08-01 09:27:19.600 ,5,0,3.,4.8,0.,4.8,0.,4.8,0.,4.8
1979-08-01 09:27:24.400 ,5,0,1.,4.8,0.,4.8,0.,4.8,0.,4.8
1979-08-01 09:27:29.200 ,5,0,0.,4.8,0.,4.8,0.,4.8,0.,4.8
1979-08-01 09:27:34.000 ,5,0,1.,4.8,0.,4.8,0.,4.8,0.,4.8
1979-08-01 09:27:38.800 ,5,0,2.,4.8,0.,4.8,0.,4.8,0.,4.8
1979-08-01 09:27:43.600 ,5,0,0.,4.8,0.,4.8,0.,4.8,0.,4.8
1979-08-01 09:27:48.400 ,5,0,1.,4.8,0.,4.8,0.,4.8,0.,4.8
1979-08-01 09:27:53.200 ,5,0,0.,4.8,0.,4.8,0.,4.8,0.,4.8
1979-08-01 09:27:58.000 ,6,0,2.,4.8,0.,4.8,0.,4.8,0.,4.8
1979-08-01 09:28:02.800 ,6,0,1.,4.8,0.,4.8,0.,4.8,0.,4.8
1979-08-01 09:28:07.600 ,6,0,2.,4.8,0.,4.8,0.,4.8,0.,4.8
1979-08-01 09:28:12.400 ,6,0,0.,4.8,0.,4.8,0.,4.8,0.,4.8
1979-08-01 09:28:17.200 ,6,0,0.,4.8,0.,4.8,0.,4.8,0.,4.8
1979-08-01 09:28:22.000 ,6,0,2.,4.8,0.,4.8,0.,4.8,0.,4.8
1979-08-01 09:28:26.800 ,6,0,1.,4.8,0.,4.8,0.,4.8,0.,4.8
1979-08-01 09:28:31.600 ,6,0,0.,4.8,0.,4.8,0.,4.8,0.,4.8
1979-08-01 09:28:36.400 ,6,0,0.,4.8,0.,4.8,0.,4.8,0.,4.8
1979-08-01 09:28:41.200 ,6,0,0.,4.8,0.,4.8,1.,4.8,0.,4.8
1979-08-01 09:28:46.000 ,7,0,1.,4.8,0.,4.8,1.,4.8,0.,4.8
1979-08-01 09:28:50.800 ,7,0,1.,4.8,0.,4.8,0.,4.8,0.,4.8
1979-08-01 09:28:55.600 ,7,0,0.,4.8,0.,4.8,0.,4.8,0.,4.8
1979-08-01 09:29:00.400 ,7,0,0.,4.8,0.,4.8,0.,4.8,0.,4.8
1979-08-01 09:29:05.200 ,7,0,3.,4.8,0.,4.8,0.,4.8,0.,4.8
1979-08-01 09:29:10.000 ,7,0,1.,4.8,0.,4.8,1.,4.8,0.,4.8
1979-08-01 09:29:14.800 ,7,0,1.,4.8,0.,4.8,0.,4.8,0.,4.8
1979-08-01 09:29:19.600 ,7,0,1.,4.8,0.,4.8,0.,4.8,0.,4.8
1979-08-01 09:29:24.400 ,7,0,3.,4.8,0.,4.8,0.,4.8,0.,4.8
1979-08-01 09:29:29.200 ,7,0,0.,4.8,0.,4.8,0.,4.8,0.,4.8
1979-08-01 09:29:34.000 ,7,0,0.,4.8,0.,4.8,0.,4.8,0.,4.8
1979-08-01 09:29:38.800 ,7,0,0.,4.8,0.,4.8,0.,4.8,0.,4.8
1979-08-01 09:29:43.600 ,7,0,1.,4.8,0.,4.8,0.,4.8,0.,4.8
1979-08-01 09:29:48.400 ,7,0,0.,4.8,0.,4.8,0.,4.8,0.,4.8
1979-08-01 09:29:53.200 ,7,0,1.,4.8,0.,4.8,1.,4.8,0.,4.8
1979-08-01 09:29:58.000 ,7,0,3.,4.8,0.,4.8,0.,4.8,0.,4.8
1979-08-01 09:30:02.800 ,7,0,0.,4.8,0.,4.8,0.,4.8,0.,4.8
1979-08-01 09:30:07.600 ,7,0,1.,4.8,0.,4.8,1.,4.8,0.,4.8
1979-08-01 09:30:12.400 ,7,0,0.,4.8,0.,4.8,1.,4.8,0.,4.8
1979-08-01 09:30:17.200 ,7,0,1.,4.8,0.,4.8,0.,4.8,0.,4.8
1979-08-01 09:30:22.000 ,6,0,2.,4.8,0.,4.8,1.,4.8,0.,4.8
1979-08-01 09:30:26.800 ,6,0,4.,4.8,0.,4.8,0.,4.8,0.,4.8
1979-08-01 09:30:31.600 ,6,0,2.,4.8,0.,4.8,0.,4.8,0.,4.8
1979-08-01 09:30:36.400 ,6,0,0.,4.8,0.,4.8,1.,4.8,0.,4.8
1979-08-01 09:30:41.200 ,6,0,3.,4.8,0.,4.8,0.,4.8,0.,4.8
1979-08-01 09:30:46.000 ,6,0,1.,4.8,0.,4.8,0.,4.8,0.,4.8
1979-08-01 09:30:50.800 ,6,0,1.,4.8,0.,4.8,0.,4.8,0.,4.8
1979-08-01 09:30:55.600 ,6,0,1.,4.8,0.,4.8,0.,4.8,0.,4.8
1979-08-01 09:31:00.400 ,6,0,1.,4.8,0.,4.8,0.,4.8,0.,4.8
1979-08-01 09:31:05.200 ,6,0,1.,4.8,0.,4.8,0.,4.8,0.,4.8
1979-08-01 09:31:10.000 ,5,0,0.,4.8,0.,4.8,0.,4.8,0.,4.8
1979-08-01 09:31:14.800 ,5,0,1.,4.8,0.,4.8,0.,4.8,0.,4.8
1979-08-01 09:31:19.600 ,5,0,0.,4.8,0.,4.8,0.,4.8,0.,4.8
1979-08-01 09:31:24.400 ,5,0,2.,4.8,0.,4.8,0.,4.8,0.,4.8
1979-08-01 09:31:29.200 ,5,0,0.,4.8,0.,4.8,0.,4.8,0.,4.8
1979-08-01 09:31:34.000 ,5,0,2.,4.8,0.,4.8,0.,4.8,0.,4.8
1979-08-01 09:31:38.800 ,5,0,1.,4.8,0.,4.8,0.,4.8,0.,4.8
1979-08-01 09:31:43.600 ,5,0,0.,4.8,0.,4.8,0.,4.8,0.,4.8
1979-08-01 09:31:48.400 ,5,0,2.,4.8,0.,4.8,1.,4.8,0.,4.8
1979-08-01 09:31:53.200 ,5,0,0.,4.8,0.,4.8,0.,4.8,0.,4.8
1979-08-01 09:31:58.000 ,4,0,1.,4.8,0.,4.8,0.,4.8,0.,4.8
1979-08-01 09:32:02.800 ,4,0,1.,4.8,0.,4.8,0.,4.8,0.,4.8
1979-08-01 09:32:07.600 ,4,0,1.,4.8,0.,4.8,1.,4.8,0.,4.8
1979-08-01 09:32:12.400 ,4,0,2.,4.8,0.,4.8,0.,4.8,0.,4.8
1979-08-01 09:32:17.200 ,4,0,1.,4.8,0.,4.8,0.,4.8,0.,4.8
1979-08-01 09:32:22.000 ,4,0,0.,4.8,0.,4.8,0.,4.8,0.,4.8
1979-08-01 09:32:26.800 ,4,0,1.,4.8,0.,4.8,1.,4.8,0.,4.8
1979-08-01 09:32:31.600 ,4,0,0.,4.8,0.,4.8,0.,4.8,0.,4.8
1979-08-01 09:32:36.400 ,4,0,1.,4.8,0.,4.8,0.,4.8,0.,4.8
1979-08-01 09:32:41.200 ,4,0,2.,4.8,0.,4.8,0.,4.8,0.,4.8
1979-08-01 09:32:46.000 ,3,0,1.,4.8,0.,4.8,1.,4.8,0.,4.8
1979-08-01 09:32:50.800 ,3,0,1.,4.8,0.,4.8,0.,4.8,0.,4.8
1979-08-01 09:32:55.600 ,3,0,0.,4.8,0.,4.8,0.,4.8,0.,4.8
1979-08-01 09:33:00.400 ,3,0,1.,4.8,0.,4.8,0.,4.8,0.,4.8
1979-08-01 09:33:05.200 ,3,0,0.,4.8,0.,4.8,0.,4.8,0.,4.8
1979-08-01 09:33:10.000 ,3,0,0.,4.8,0.,4.8,0.,4.8,0.,4.8
1979-08-01 09:33:14.800 ,3,0,0.,4.8,0.,4.8,0.,4.8,0.,4.8
1979-08-01 09:33:19.600 ,3,0,0.,4.8,0.,4.8,0.,4.8,0.,4.8
1979-08-01 09:33:24.400 ,3,0,0.,4.8,0.,4.8,0.,4.8,0.,4.8